Flag for Faroe Islands Weather past 2 weeks in Tórshavn, Faroe Islands, Faroe Islands

Now
52 °F

Fog.


Feels Like: 49 °F
Forecast: 53 / 58 °F
Wind: 8 mph from West

Location: Soervaag / Vagar

Current Time: Jul 26, 2014 at 2:42:20 AM

Latest Report: Jul 26, 2014 at 2:20 AM


Visibility: 0 mi

Pressure: 30.09 "Hg

Humidity: 100%

Dew point: 52 °F

Location of TórshavnLocation

Historic Weather in Tórshavn — Graph

°F

Tórshavn temperature yesterday

Maximum temperature yesterday: 57 °F (at 9:20 AM)
Minimum temperature yesterday: 54 °F (at 1:20 AM)
Average temperature yesterday: 54 °F

Past Weeks' High & Low Weather Summary

 TemperatureHumidityPressure
High64 °F (Jul 20, 8:50 AM)100% (Jul 11, 6:50 PM)30.30 "Hg (Jul 11, 6:50 PM)
Low50 °F (Jul 12, 4:20 AM)68% (Jul 18, 4:20 PM)29.59 "Hg (Jul 13, 8:20 AM)
Average55 °F93%29.96 "Hg
* Reported Jul 11 1:20 AM — Jul 26 1:20 AM, Tórshavn, Weather by CustomWeather, © 2014

Note: Actual official high and low records may vary slightly from our data, if they occured in-between our weather recording intervals... More about our weather records

Advertising

Tórshavn weather history for previous 24 hours

 ConditionsComfort  
Time TempWeatherWind HumidityBarometerVisibility
1:20 AM
Jul 26
52 °FFog.10 mph100%30.12 "Hg0 mi
12:50 AM54 °FPassing clouds.9 mph100%30.12 "Hg3 mi
12:20 AM54 °FPartly sunny.5 mph100%30.12 "Hg0 mi
11:50 PM
Jul 25
55 °FFog.6 mph94%30.12 "Hg0 mi
11:20 PM55 °FLow clouds.9 mph100%30.12 "HgN/A
10:50 PM54 °FLow clouds.14 mph100%30.12 "HgN/A
10:20 PM54 °FLow clouds.12 mph100%30.15 "Hg3 mi
9:50 PM54 °FPartly sunny.2 mph100%30.15 "Hg4 mi
9:20 PM54 °FLight fog.6 mph100%30.15 "Hg5 mi
8:50 PM57 °FLow clouds.9 mph94%30.15 "HgN/A
8:20 PM55 °FLow clouds.15 mph100%30.15 "HgN/A
7:50 PM54 °FLow clouds.1 mph100%30.15 "HgN/A
7:20 PM54 °FFog.7 mph100%30.15 "Hg1 mi
6:50 PM54 °FMostly cloudy.3 mph100%30.15 "Hg3 mi
6:20 PM54 °FDrizzle. Mostly cloudy.7 mph100%30.15 "Hg6 mi
5:50 PM54 °FLight rain. Broken clouds.7 mph100%30.15 "HgN/A
5:20 PM54 °FRain. Partly sunny.5 mph100%30.15 "Hg3 mi
4:50 PM54 °FLight rain. Mostly cloudy.2 mph100%30.15 "Hg4 mi
4:20 PM54 °FDrizzle. Low clouds.7 mph94%30.18 "Hg5 mi
3:50 PM55 °FMostly cloudy.8 mph94%30.18 "HgN/A
3:20 PM55 °FLow clouds.7 mph100%30.18 "HgN/A
2:50 PM55 °FLow clouds.2 mph100%30.18 "HgN/A
2:20 PM57 °FSprinkles. Low clouds.3 mph94%30.18 "HgN/A
1:20 PM55 °FLow clouds.5 mph100%30.21 "HgN/A
12:50 PM55 °FLow clouds.2 mph100%30.21 "Hg4 mi
12:20 PM55 °FLow clouds.2 mph94%30.21 "Hg5 mi
11:50 AM54 °FFog.6 mph100%30.21 "Hg2 mi
11:20 AM54 °FPartly sunny.3 mph100%30.21 "Hg3 mi
10:50 AM54 °FFog.7 mph100%30.21 "Hg1 mi
10:20 AM54 °FLow clouds.6 mph100%30.21 "Hg6 mi
9:50 AM55 °FPartly sunny.6 mph100%30.21 "Hg6 mi
9:20 AM57 °FLow clouds.2 mph100%30.18 "HgN/A
8:50 AM55 °FLow clouds.3 mph100%30.21 "Hg6 mi
8:20 AM55 °FLow clouds.1 mph100%30.21 "HgN/A
7:50 AM54 °FFog.5 mph100%30.21 "Hg1 mi
7:20 AM55 °FMore clouds than sun.1 mph100%30.18 "HgN/A
6:50 AM54 °FFog.3 mph100%30.18 "Hg0 mi
6:20 AM54 °FPassing clouds.5 mph100%30.18 "Hg0 mi
5:50 AM55 °FFog.No wind100%30.18 "Hg1 mi
5:20 AM54 °FFog.5 mph100%30.18 "Hg0 mi
4:50 AM54 °FFog.1 mph100%30.18 "Hg0 mi
4:20 AM54 °FFog.3 mph100%30.21 "Hg0 mi
3:50 AM54 °FFog.2 mph100%30.21 "Hg0 mi
3:20 AM54 °FFog.3 mph100%30.21 "Hg0 mi
2:50 AM54 °FFog.3 mph100%30.21 "Hg0 mi
2:20 AM54 °FFog.No wind100%30.21 "Hg0 mi
Weather by CustomWeather, © 2014

See weather overviewHow to use our weather pages